User: anonymous   Login
Location: Ostrava
(49.8330°N, 18.2830°E)
Time: 22:21:30
(UTC+02:00)
Language:

Lacrosse 5 - Orbit

View from above orbital plane
View from above orbital plane
View from above satellite
View from above satellite

Ground track
Ground track

The orbit data is extracted from the following two-line orbital elements,

1 28646U 05016A   16150.88703360 0.00000000  00000-0  00000-0 0    09
2 28646  57.0130 116.4426 0004500 129.4021 230.5978 14.52127032    07
Epoch (UTC): 29 May 2016 21:17:19
Eccentricity: 0.0004500
inclination: 57.0130°
perigee height: 715 km
apogee height: 722 km
right ascension of ascending node: 116.4426°
argument of perigee: 129.4021°
revolutions per day: 14.52127032
mean anomaly at epoch: 230.5978°
orbit number at epoch: 0

The dashed part of the orbit path shows where the satellite is in the earth's shadow,  

DLR